User: anonymous   Login
Location: Bruderhein
(53.8035°N, 112.9265°W)
Time: 21:13:46
(UTC+00:00)
Language:

RS-15 - Orbit

View from above orbital plane
View from above orbital plane
View from above satellite
View from above satellite

Ground track
Ground track

The orbit data is extracted from the following two-line orbital elements,

1 23439U 94085A   24107.82919049 -.00000052  00000-0 -26204-3 0  9999
2 23439  64.8137 142.9980 0151815 155.4175 205.4082 11.27576268206671
Epoch (UTC): 16 April 2024 19:54:02
Eccentricity: 0.0151815
inclination: 64.8137°
perigee height: 1895 km
apogee height: 2150 km
right ascension of ascending node: 142.9980°
argument of perigee: 155.4175°
revolutions per day: 11.27576268
mean anomaly at epoch: 205.4082°
orbit number at epoch: 20667

The dashed part of the orbit path shows where the satellite is in the earth's shadow,  

DLR